Regional Weather Roundup
Issued by NWS

Home | Current Version | Previous Version | Text Only | Print | Product List | Glossary On
Versions: 1 2 3 4 5 6 7 8 9 10 11 12 13 14 15 16 17 18 19 20 21 22 23 24 25 26 27 28 29 30 31 32 33 34 35 36 37 38 39 40 41 42 43 44 45 46 47 48 49 50
000
ASUS43 KDMX 240001
RWRIA

WEATHER ROUNDUP FOR IOWA
NATIONAL WEATHER SERVICE DES MOINES IA
700 PM CDT SUN APR 23 2017

NOTE: "FAIR" INDICATES FEW OR NO CLOUDS BELOW 12,000 FEET WITH NO
SIGNIFICANT WEATHER AND/OR OBSTRUCTIONS TO VISIBILITY.

* - THESE STATIONS ARE NOT NWS STATIONS...THUS NOT UNDER NWS
QUALITY CONTROL.  THEY ALSO DO NOT REPORT WEATHER SUCH
AS PRECIPITATION OR FOG.

IAZ001>003-012>014-020>022-031>034-043>046-240100-
   NORTHWEST IOWA

CITY           SKY/WX    TMP DP  RH WIND       PRES   REMARKS
CARROLL *      PTSUNNY   70  30  23 S16       29.93F
CHEROKEE *     CLOUDY    67  30  25 S15G24    29.88F
DENISON *      MOSUNNY   68  28  22 S15G24    29.93F
LE MARS *      CLOUDY    70  28  21 S17G24    29.85F
ORANGE CITY *  CLOUDY    68  32  26 S17G26    29.85F
SHELDON *      CLOUDY    70  25  18 S21G28    29.84F
SIOUX CITY     MOSUNNY   71  26  18 S25       29.86F
6HR MIN TEMP:  70; 6HR MAX TEMP:  75;

SPENCER        PTSUNNY   68  28  22 MISG      29.89F
6HR MIN TEMP:  68; 6HR MAX TEMP:  72;

STORM LAKE *   MOSUNNY   68  27  21 S21       29.89F
$$

IAZ055>058-069>071-079>083-090>094-240100-
   SOUTHWEST IOWA

CITY           SKY/WX    TMP DP  RH WIND       PRES   REMARKS
ATLANTIC *     MOSUNNY   68  30  24 S14G23    29.94F
AUDUBON *      PTSUNNY   70  16  12 S13G18    29.95F
CLARINDA *     SUNNY     68  30  24 S12G17    29.99F
COUNCIL BLFS * MOSUNNY   68  28  22 SW16      29.93F
CRESTON *      CLOUDY    64  34  32 S14       30.00S
HARLAN  *      MOSUNNY   70  27  19 S13G21    29.97S
LAMONI         SUNNY     67  31  26 S8        29.99F
6HR MIN TEMP:  66; 6HR MAX TEMP:  70;

RED OAK *      MOSUNNY   70  28  21 S16       29.95F
SHENANDOAH *   SUNNY     70  30  23 S14       29.96F
$$

IAZ047>049-059>061-072>074-084-240100-
   CENTRAL IOWA

CITY           SKY/WX    TMP DP  RH WIND       PRES   REMARKS
AMES           CLOUDY    66  34  30 S10       29.95F
6HR MIN TEMP:  66; 6HR MAX TEMP:  72;

ANKENY *       MOSUNNY   68  32  26 S10       29.98F
BOONE *        MOSUNNY   68  27  21 SW10      29.94F
CHARITON *     SUNNY     66  36  32 S8        29.99F
DES MOINES     CLOUDY    68  30  24 S10       29.98F
6HR MIN TEMP:  68; 6HR MAX TEMP:  73;

GRINNELL*      SUNNY     68  29  23 SW9       30.00F
KNOXVILLE *    SUNNY     68  34  28 S7        29.98F
MARSHALLTOWN   CLOUDY    67  32  27 S10       29.96F
6HR MIN TEMP:  67; 6HR MAX TEMP:  71;

NEWTON *       MOSUNNY   68  27  21 S10       29.97F
PELLA *        SUNNY     69  29  22 SW6       30.00F
PERRY *          N/A     68  25  19 S14       29.96F
$$

IAZ004>006-015-016-023>025-035-036-240100-
   NORTH CENTRAL IOWA

CITY           SKY/WX    TMP DP  RH WIND       PRES   REMARKS
ALGONA *       CLOUDY    68  27  21 S21       29.90F
CLARION *      PTSUNNY   68  27  21 S16       29.93F
ESTHERVILLE    CLOUDY    66  27  23 S21G29    29.89F
6HR MIN TEMP:  66; 6HR MAX TEMP:  70;

FORT DODGE *   MOSUNNY   66  30  26 S10       29.94F
MASON CITY     CLOUDY    66  28  24 S12       29.93F
6HR MIN TEMP:  66; 6HR MAX TEMP:  72;

FOREST CITY *    N/A     66  28  24 SW10G16   29.92F
WEBSTER CITY * CLOUDY    68  28  22 S16       29.92F
IOWA FALLS *     N/A     70  30  22 S13       29.96F
$$

IAZ007>011-017>019-026>030-037>042-050>054-066-240100-
   NORTHEAST IOWA

CITY           SKY/WX    TMP DP  RH WIND       PRES   REMARKS
CEDAR RAPIDS   CLOUDY    68  30  24 S6        29.99F
6HR MIN TEMP:  68; 6HR MAX TEMP:  71;

CHARLES CITY * CLOUDY    68  27  21 S12       29.95F
CLINTON *      CLEAR     69  32  25 CALM      30.02S
DECORAH *      MOCLDY    68  32  26 SW5       29.95F
DUBUQUE        CLEAR     65  37  35 SW7       30.01F
6HR MIN TEMP:  65; 6HR MAX TEMP:  71;

MONTICELLO *   CLEAR     70  32  24 S7G13     30.00S
OELWEIN *      CLEAR     66  34  30 SW10      29.98F
WATERLOO       MOSUNNY   68  29  23 SW12      29.96F
6HR MIN TEMP:  67; 6HR MAX TEMP:  72;

$$

IAZ064-065-067-068-078-240100-
   EAST CENTRAL IOWA

CITY           SKY/WX    TMP DP  RH WIND       PRES   REMARKS
DAVENPORT      CLEAR     69  30  23 S5        30.01F
6HR MIN TEMP:  68; 6HR MAX TEMP:  72;

IOWA CITY      CLOUDY    70  32  24 SE3       30.02S
6HR MIN TEMP:  69; 6HR MAX TEMP:  73;

MUSCATINE *    CLEAR     68  32  26 S9        30.01F
QUAD CITIES    CLEAR     67  39  35 SE3       30.00F
6HR MIN TEMP:  67; 6HR MAX TEMP:  74;

$$

IAZ062-063-075>077-085>089-095>099-240100-
   SOUTHEAST IOWA

CITY           SKY/WX    TMP DP  RH WIND       PRES   REMARKS
BURLINGTON     CLEAR     66  31  27 S6        30.01F
6HR MIN TEMP:  66; 6HR MAX TEMP:  72;

FAIRFIELD *    CLEAR     70  25  18 SW7       30.01S
FORT MADISON * CLEAR     70  28  21 CALM      30.03S
KEOKUK *       CLEAR     70  27  19 CALM      30.01F
OSKALOOSA *      N/A     67  32  26 S10       30.00F
OTTUMWA        CLEAR     68  30  24 S8        30.00F
6HR MIN TEMP:  67; 6HR MAX TEMP:  72;

WASHINGTON *   CLEAR     70  28  21 S7        30.02S
$$

ABBREVIATIONS USED IN REMARKS
   TC - TEMPERATURES IN CELSIUS
  WCI - WIND CHILL INDEX
   HX - HEAT INDEX
  VSB - VISIBILITY
$$




USA.gov is the U.S. government's official web portal to all federal, state and local government web resources and services.